Regional Weather Roundup
Issued by NWS

Home | Current Version | Previous Version | Text Only | Print | Product List | Glossary On
Versions: 1 2 3 4 5 6 7 8 9 10 11 12 13 14 15 16 17 18 19 20 21 22 23 24 25 26 27 28 29 30 31 32 33 34 35 36 37 38 39 40 41 42 43 44 45 46 47 48 49 50
216
ASUS44 KLIX 301610
RWRLA
LOUISIANA WEATHER ROUNDUP
NATIONAL WEATHER SERVICE NEW ORLEANS LA
1100 AM CDT SAT AUG 30 2014

NOTE: "FAIR" INDICATES FEW OR NO CLOUDS BELOW 12,000 FEET WITH NO
      SIGNIFICANT WEATHER AND/OR OBSTRUCTIONS TO VISIBILITY.
      SKY/WX - SKY CONDITION AND SIGNIFICANT WEATHER.
      TMP - AIR TEMPERATURE.    DP   - DEWPOINT TEMPERATURE.
      RH  - RELATIVE HUMIDITY.  PRES - PRESSURE.
      HX  - HEAT INDEX.         WCI  - WIND CHILL INDEX.

*  THESE STATIONS ARE NOT NWS OR FAA STATIONS AND ARE NOT UNDER
   NWS QUALITY CONTROL.

LAZ040-048-061>063-065-066-069-301700-
SOUTHEAST LOUISIANA

CITY           SKY/WX    TMP DP  RH WIND       PRES   REMARKS
N.O. AUDUBON     N/A     76  73  89 MISG        N/A
N.O. INTL ARPT LGT RAIN  77  72  84 S12       30.03S
N.O. LAKEFRONT HVY RAIN  77  73  87 SW29G36   30.05R VSB 1/2
N.O. DOWNTOWN* CLOUDY    79  70  73 SW5G23    30.05R
SLIDELL        PTSUNNY   86  76  71 SE12G22   30.03S HX  96
BATON ROUGE    LGT RAIN  75  72  90 S13       30.05R FOG
BOOTHVILLE     MOSUNNY   88  78  72 S15G25    30.05S HX 101
BELLE CHASSE   TSTM      77  72  84 S9        30.01S
BOGALUSA*      FAIR      89  75  63 S13G18    30.05F HX  98
GALLIANO*      NOT AVBL
NEW ROADS*     CLOUDY    73  72  94 S12       30.03R
GONZALES*      CLOUDY    80  74  82 CALM      30.03R HAZE
HAMMOND*       CLOUDY    86  75  70 SE9       30.04S HX  95
HOUMA*         SHOWER    81  77  89 SE9       30.02S
PORT FOURCHON* MOSUNNY   88  79  74 S15G25    30.04R HX 102

$$

LAZ041-044-053-054-301700-
SOUTHWEST LOUISIANA

CITY           SKY/WX    TMP DP  RH WIND       PRES   REMARKS
LAKE CHARLES   RAIN      75  74  96 NE3       29.98R FOG
LAFAYETTE      CLOUDY    77  32  19 S9        30.01S
PATTERSON      CLOUDY    75  73  94 S5        30.05R
SALT POINT       N/A     81  77  88 VRB6      30.01F
NEW IBERIA     LGT RAIN  78  76  93 S13G21    30.02R
CHENAULT AIRPK RAIN      73  73 100 E3        29.99R

$$

LAZ027-028-301700-
CENTRAL LOUISIANA

CITY           SKY/WX    TMP DP  RH WIND       PRES   REMARKS
FORT POLK      RAIN      74  73  97 S6        29.97S
ALEXANDRIA INT HVY RAIN  74  73  97 SE8       29.96F FOG
ALEXANDRIA     RAIN      76  73  91 SE3       29.99F

$$

LAZ001-002-301700-
NORTHWEST LOUISIANA

CITY           SKY/WX    TMP DP  RH WIND       PRES   REMARKS
SHREVEPORT     CLOUDY    80  72  76 SE7       29.98S
BARKSDALE AFB  PTSUNNY   82  72  71 SE6       29.98F
DTN SHREVEPORT CLOUDY    80  72  76 SE6       29.99R

$$

LAZ014-016-301700-
NORTHEAST LOUISIANA

CITY           SKY/WX    TMP DP  RH WIND       PRES   REMARKS
MONROE         RAIN      73  72  96 CALM      30.03S FOG
TALLULAH       LGT RAIN  78  75  90 SE8       30.04R

$$




USA.gov is the U.S. government's official web portal to all federal, state and local government web resources and services.